Location: ???????
(54.9996°N, 37.9529°E)
Time: 04:32:56
(UTC+00:00)

SL-16 R/B - Pass Details

Date: 14 April 2024
Orbit: 841 x 845 km, 71.0° (Epoch: 23 May)

Event Time Altitude Azimuth Distance (km) Brightness Sun altitude
Exits shadow 00:35:48 11° 272° (W) 2,426 4.2 -14.6°
Maximum altitude 00:40:23 27° 328° (NNW) 1,590 3.7 -14.1°
Drops below altitude 10° 00:45:10 10° 26° (NNE) 2,479 5.7 -13.6°
Sets 00:48:02 0° 38° (NE) 3,417 7.1 -13.2°
